カタログに戻る

GLOBALSTAR M033

運用中通信LEO
NORAD 25909·PAYLOAD·🇺🇸 United States

打ち上げ Sep 22, 1999 から Baikonur Cosmodrome

Loading…

次のパス (今後24時間)

TLE

最新Source: Space-Track

元期: Sep 14, 2026, 10:51 UTC

1 25909U 99049C   26257.45264301 -.00000014  00000-0  74954-3 0  9991
2 25909  51.9897 150.3361 0014576 116.1386 244.0963 12.20313439591207

AllMySatでGLOBALSTAR M033をリアルタイム追跡

Download on the App Store